User: anonymous   Login
Location: ?astrovice
(49.6513°N, 14.9287°E)
Time: 04:09:09
(UTC+00:00)
Language:

LilacSat-2 - Orbit

View from above orbital plane
View from above orbital plane
View from above satellite
View from above satellite

Ground track
Ground track

The orbit data is extracted from the following two-line orbital elements,

1 40908U 15049K   21289.85620639  .00001367  00000-0  77322-4 0  9993
2 40908  97.5100 288.2454 0016924 135.9019 341.5842 15.14630282335604
Epoch (UTC): 16 October 2021 20:32:56
Eccentricity: 0.0016924
inclination: 97.5100°
perigee height: 510 km
apogee height: 534 km
right ascension of ascending node: 288.2454°
argument of perigee: 135.9019°
revolutions per day: 15.14630282
mean anomaly at epoch: 341.5842°
orbit number at epoch: 33560

The dashed part of the orbit path shows where the satellite is in the earth's shadow,  

DLR